847  
ASUS42 KMLB 162212  
RWRMLB  
HOURLY WEATHER ROUNDUP AROUND FLORIDA  
NATIONAL WEATHER SERVICE OFFICE MELBOURNE FL  
600 PM EDT MON SEP 16 2019  
 
CITY SKY/WX TMP DP RH WIND PRES REMARKS
 
MELBOURNE FAIR 88 75 65 N17 29.89S  
FORT PIERCE FAIR 84 74 71 N9G17 29.89S  
ORLANDO INTL FAIR 90 73 57 N16 29.90S HX 98  
DAYTONA BEACH FAIR 84 75 74 N14G26 29.93S  
VERO BEACH FAIR 87 76 69 N14G26 29.89F  

   
..ELSEWHERE ACROSS CENTRAL FLORIDA
 
 
 
CITY SKY/WX TMP DP RH WIND PRES REMARKS
 
PATRICK AFB FAIR 86 77 75 N15G24 29.90S  
KSC MOSUNNY 84 75 73 N15G21 29.91S  
CAPE CANAVERAL FAIR 85 80 83 N16G23 29.89S HX 99  
TITUSVILLE MOSUNNY 90 75 62 N17G23 29.92S HX 100  
ORLANDO EXEC PTSUNNY 90 73 57 N10 29.91S HX 98  
LEESBURG FAIR 93 69 45 NW12 29.93R HX 98  
SANFORD FAIR 88 73 61 N15 29.91S  
DELAND FAIR 86 73 66 N14G20 29.92S  
NEW SMYRNA BCH MOSUNNY 84 75 74 N16G28 29.94S  
ORMOND BEACH MOSUNNY 82 77 83 N14G20 29.94R  
WINTER HAVEN FAIR 93 71 48 N9 29.92S HX 100  
KISSIMMEE FAIR 93 73 52 E13 29.91S HX 102  
OKEECHOBEE FAIR 90 72 55 N7 29.88S  
TAMPA FAIR 89 73 59 NW13G25 29.93S  

   
..NORTHERN FLORIDA
 
 
 
CITY SKY/WX TMP DP RH WIND PRES REMARKS
 
PALM COAST MOSUNNY 84 73 70 N12G23 29.94S  
ST AUGUSTINE FAIR 84 32 15 N10 29.95S  
OCALA FAIR 91 69 48 N8 29.94S  
GAINESVILLE FAIR 89 68 49 NE3 29.95S  
JACKSONVILLE FAIR 88 70 55 E10 29.93R  
TALLAHASSEE FAIR 93 72 50 VRB5 29.94F HX 101  

   
..ALONG THE SOUTHEAST COAST TO THE KEYS
 
 
 
CITY SKY/WX TMP DP RH WIND PRES REMARKS
 
STUART MOSUNNY 86 75 70 N12G21 29.90S  
WEST PALM BCH PTSUNNY 86 77 74 N10 29.89S  
MIAMI FAIR 94 70 45 N7 29.89S HX 100  
KEY WEST FAIR 89 79 72 NW13 29.93F HX 104  

   
..MARINE REPORTS
 
 
 
STATION/POSITION TIME TEMP WIND PRES WAVE SWELL
 
AIR SEA DIR/SP/G HT/PER HT/PER  
(UTC) (F) (DEG/KT/KT) (MB) (FT/S) (FT/S)  
ST AUGUSTINE FP 2200 82 84 360/ 14/ 15 1013.9F  
20NM E CAPE CANA 2140 83 85 330/ 23/ 27 1012.6F  
TRIDENT PIER 2130 85 84 350/ 14/ 23 1014.1F  
SEBASTIAN INLET 2145 82 82 360/ 21 1013.0S  
4NM E PORT CANAV 2130 83 N/A 4/11 2/11  
6NM NE FPR INLET 2130 84 N/A 6/11 3/11  
SETTLEMENT PT GB 2200 84 320/ 14/ 17 1012.1R  

 
 
 
CLICK HERE TO GO TO PREVIOUS BULLETINS.

The Nexlab FL Page Main Text Page